DW6723 Weather Reports


time (UTC)temp
C
wind
direction
speed
KPH
gust
KPH
rain 1hr
cm
rain 24hr
cm
rain mn
cm
humidity
%
barometer
mb
20260506044517 18 227 4.8 20.9 0.00 0.00 0.00 61 1008.7
20260506043014 18 231 4.8 22.5 0.00 0.00 0.00 60 1008.8
20260506041554 18 279 4.8 20.9 0.00 0.00 0.00 59 1008.9
20260506040049 18 242 11.3 19.3 0.00 0.00 0.00 59 1008.8
20260506034529 18 269 11.3 25.7 0.00 0.00 0.00 58 1008.7
20260506033027 18 251 12.9 20.9 0.00 0.00 0.00 57 1008.7
20260506031513 19 212 8.0 24.1 0.00 0.00 0.00 56 1008.7
20260506030007 19 236 8.0 32.2 0.00 0.00 0.00 56 1008.7
20260506024545 19 221 3.2 11.3 0.00 0.00 0.00 57 1008.7
20260506023044 19 248 6.4 16.1 0.00 0.00 0.00 56 1008.8
20260506021526 19 217 6.4 11.3 0.00 0.00 0.00 56 1008.9
20260506020023 20 180 4.8 17.7 0.00 0.00 0.00 55 1009.0
20260506014505 20 247 9.7 16.1 0.00 0.00 0.00 55 1008.9
20260506013002 20 265 12.9 29.0 0.00 0.00 0.00 55 1008.6
20260506011543 20 208 9.7 24.1 0.00 0.00 0.00 54 1008.0
20260506010038 20 226 8.0 20.9 0.00 0.00 0.00 53 1007.9
20260506004517 21 216 12.9 29.0 0.00 0.00 0.00 52 1007.6
20260506003013 21 251 11.3 24.1 0.00 0.00 0.00 51 1007.3
20260506001559 21 173 14.5 29.0 0.00 0.00 0.00 50 1007.0
20260506000050 22 250 14.5 27.4 0.00 0.00 0.00 49 1006.7
20260505234550 22 201 9.7 20.9 0.00 0.00 0.00 48 1006.3
20260505233021 22 183 12.9 30.6 0.00 0.00 0.00 48 1006.2
20260505231504 23 173 11.3 27.4 0.00 0.00 0.00 47 1006.1
20260505230058 23 242 11.3 40.2 0.00 0.00 0.00 46 1005.9
20260505224535 23 244 14.5 29.0 0.00 0.00 0.00 45 1005.4
20260505223035 24 199 17.7 33.8 0.00 0.00 0.00 44 1005.2
20260505221513 24 212 16.1 37.0 0.00 0.00 0.00 43 1005.1
20260505220012 24 203 12.9 32.2 0.00 0.00 0.00 43 1004.9
20260505214616 25 185 17.7 35.4 0.00 0.00 0.00 43 1004.8
20260505213054 25 202 14.5 35.4 0.00 0.00 0.00 42 1004.7
20260505211611 25 177 11.3 38.6 0.00 0.00 0.00 42 1004.5
20260505210051 26 152 25.7 43.5 0.00 0.00 0.00 41 1004.3
20260505204546 26 186 17.7 35.4 0.00 0.00 0.00 40 1004.1
20260505203046 26 188 17.7 35.4 0.00 0.00 0.00 39 1004.3
20260505201544 26 213 17.7 33.8 0.00 0.00 0.00 39 1004.3
20260505200051 27 205 24.1 48.3 0.00 0.00 0.00 39 1004.3
20260505194522 26 200 17.7 49.9 0.00 0.00 0.00 40 1004.4
20260505193019 27 169 14.5 32.2 0.00 0.00 0.00 40 1004.7
20260505191617 26 213 12.9 37.0 0.00 0.00 0.00 41 1004.9
20260505184557 26 199 24.1 37.0 0.00 0.00 0.00 41 1005.3
20260505183048 27 261 12.9 43.5 0.00 0.00 0.00 36 1005.6
20260505181543 27 252 24.1 43.5 0.00 0.00 0.00 37 1005.7
20260505180041 27 234 19.3 35.4 0.00 0.00 0.00 37 1005.8
20260505174543 27 225 14.5 33.8 0.00 0.00 0.00 37 1006.0
20260505173044 27 248 17.7 33.8 0.00 0.00 0.00 37 1006.4
20260505171537 26 247 12.9 27.4 0.00 0.00 0.00 37 1006.7
20260505170036 26 204 14.5 29.0 0.00 0.00 0.00 39 1006.9
20260505164531 26 246 12.9 29.0 0.00 0.00 0.00 40 1007.2
20260505163015 25 231 6.4 19.3 0.00 0.00 0.00 42 1007.5
20260505161513 24 295 12.9 22.5 0.00 0.00 0.00 44 1008.0
20260505153006 22 232 9.7 24.1 0.00 0.00 0.00 48 1008.5
20260505151508 22 248 11.3 25.7 0.00 0.00 0.00 49 1008.6
20260505124558 18 243 11.3 22.5 0.00 0.00 0.00 57 1009.0
20260505123032 17 284 12.9 25.7 0.00 0.00 0.00 59 1009.0
20260505121531 17 190 9.7 24.1 0.00 0.00 0.00 60 1008.8
20260505120013 17 221 9.7 16.1 0.00 0.00 0.00 61 1008.8
20260505114513 16 191 6.4 20.9 0.00 0.00 0.00 62 1008.8
20260505113057 15 265 8.0 22.5 0.00 0.00 0.00 64 1009.0
20260505111554 15 253 4.8 17.7 0.00 0.00 0.00 66 1009.0
20260505101525 12 248 1.6 11.3 0.00 0.00 0.00 69 1008.9
20260505100100 12 194 1.6 9.7 0.00 0.00 0.00 70 1008.9
20260505100004 12 166 1.6 12.9 0.00 0.00 0.00 70 1008.8
20260505094603 12 198 3.2 8.0 0.00 0.00 0.00 70 1008.9
20260505093044 12 229 3.2 9.7 0.00 0.00 0.00 69 1009.0
20260505091539 12 188 4.8 12.9 0.00 0.00 0.00 69 1009.0
20260505090021 12 264 4.8 11.3 0.00 0.00 0.00 68 1009.1
20260505084531 12 215 6.4 12.9 0.00 0.00 0.00 67 1009.1
20260505083059 12 211 6.4 11.3 0.00 0.00 0.00 66 1009.1
20260505081559 12 213 3.2 12.9 0.00 0.00 0.00 66 1009.2
20260505080043 12 262 1.6 9.7 0.00 0.00 0.00 67 1009.4
20260505074541 12 196 1.6 8.0 0.00 0.00 0.00 66 1009.4
20260505073032 12 211 1.6 6.4 0.00 0.00 0.00 66 1009.5
20260505071520 12 236 1.6 8.0 0.00 0.00 0.00 65 1009.6
20260505070101 13 195 0.0 6.4 0.00 0.00 0.00 63 1009.6
20260505064601 13 210 1.6 6.4 0.00 0.00 0.00 62 1009.6
20260505063108 13 215 3.2 9.7 0.00 0.00 0.00 61 1009.5
20260505061545 13 254 6.4 11.3 0.00 0.00 0.00 60 1009.5
20260505060041 13 266 4.8 11.3 0.00 0.00 0.00 60 1009.5